Hourly Data Report for December 23, 2000

SHERBROOKE A
QUEBEC

45°26'00.000" N
71°41'00.000" W
241.40 m
7028124
71610
YSC

Download Data

Hourly Data (December 2000)
Hourly Data Report for December 23, 2000
TIME
LST
Temp Definition
°C
Dew Point Definition
°C
Rel Hum Definition
%
Precip. Amount Definition
mm

Wind Dir Definition
10's deg

Wind Spd Definition
km/h
Visibility Definition
km
Stn Press Definition
kPa
Hmdx Definition


Wind Chill Definition


Weather Definition


00:00 -10.0 -12.3 83   25 11 9.7 98.42   -16 Snow
01:00 -10.6 -12.8 84   26 19 15.0 98.49   -18  
02:00 -10.4 -12.4 85   26 17 9.7 98.55   -18 Snow
03:00 -10.3 -12.4 85   25 20 3.1 98.62   -18 Snow
04:00 -10.4 -12.2 87   26 17 3.5 98.69   -18 Snow
05:00 -10.8 -12.6 87   24 22 3.5 98.72   -19 Snow
06:00 -11.2 -12.8 88   25 13 2.9 98.82   -18 Snow
07:00 -11.2 -12.8 88   26 17 1.8 98.92   -19 Snow
08:00 -11.4 -13.0 88   26 22 1.2 99.02   -20 Snow
09:00 -11.5 -13.2 87   26 24 3.2 99.12   -21 Snow Showers
10:00 -11.6 -13.8 84   26 22 3.2 99.22   -20 Snow Showers
11:00 -11.8 -13.7 86   27 24 1.6 99.22   -21 Snow Showers
12:00 -12.4 -14.6 84   28 22 1.6 99.18   -21 Snow Showers
13:00 -12.4 -14.4 85   28 19 1.6 99.25   -21 Snow Showers
14:00 -12.3 -15.2 79   27 19 9.7 99.31   -21 Snow Showers
15:00 -12.5 -15.2 80   26 24 19.3 99.38   -22 Snow Showers
16:00 -13.7 -16.4 80   26 26 24.1 99.48   -24 Snow Showers
17:00 -14.5 -17.0 81   26 20 24.1 99.58   -24 Mostly Cloudy
18:00 -15.6 -17.8 83   25 11 15.0 99.65   -22  
19:00 -16.3 -18.4 84   25 15 15.0 99.68   -25  
20:00 -18.2 -19.5 89   23 7 15.0 99.68   -24  
21:00 -17.4 -20.7 75   23 11 15.0 99.68   -25  
22:00 -18.5 -22.3 72   23 9 15.0 99.71   -25  
23:00 -18.8 -22.1 75   20 7 15.0 99.71   -24  

Notes on Data Quality.

Legend

  • E = Estimated
  • M = Missing
  • NA = Not Available*
  • [empty] = Indicates an unobserved value
Date modified: